Location: Brede
(50.9167°N, 0.6000°E)
Time: 02:29:19
(UTC+00:00)

USA 229 - Pass Details

Date: 08 August 2020
Orbit: 975 x 1237 km, 63.4° (Epoch: 17 September)

Event Time Altitude Azimuth Distance (km) Brightness Sun altitude
Exits shadow 03:52:58 - 231° (SW) 2,989 5.3 -6.4°
Reaches altitude 10° 03:53:33 10° 232° (SW) 2,779 5.2 -6.4°
Maximum altitude 04:00:05 74° 317° (NW) 1,090 3.8 -5.5°
Drops below altitude 10° 04:07:05 10° 43° (NE) 2,961 7.7 -4.6°
Sets 04:09:52 0° 46° (NE) 3,962 8.8 -4.2°
